Weather History for Milk River, Alberta

Change the Weather History Date:

Wednesday, September 18, 2013

  Actual Average Record
Temperature  
Mean Temperature 44 °F -  
Max Temperature 48 °F - - ()
Min Temperature 40 °F - - ()
Degree Days  
Heating Degree Days 21    
Moisture  
Dew Point 42 °F    
Average Humidity 86    
Maximum Humidity 94    
Minimum Humidity 46    
Precipitation  
Precipitation 0.16 in - - ()
Sea Level Pressure  
Sea Level Pressure 29.77 in    
Wind  
Wind Speed 11 mph ()    
Max Wind Speed 28 mph    
Max Gust Speed 36 mph    
T = Trace of Precipitation, MM = Missing Value Source: Averaged Metar Reports

Daily Weather History Graph

Daily Weather History Graph

Search for Another Location

Airport:

Trip Planner

Search our weather history database for the weather conditions in past years. The results will help you decide how hot, cold, wet, or windy it might be!

Date:

Astronomy

Sep. 18, 2013 Rise Set
Actual Time 7:09 AM MDT 7:34 PM MDT
Civil Twilight 6:37 AM MDT 8:05 PM MDT
Nautical Twilight 5:59 AM MDT 8:43 PM MDT
Astronomical Twilight 5:20 AM MDT 9:22 PM MDT
Moon 6:57 PM MDT (9/18) 6:15 AM MDT (9/18)
Length of Visible Light 13h 28m
Length of Day
12h 24m
Waxing Gibbous, 99% of the Moon is Illuminated
Sep 18
Waxing Gibbous
Sep 19
Full
Sep 26
Last Quarter
Oct 4
New
Oct 11
First Quarter

Hourly Weather History & Observations

Time (MDT) Temp. Windchill Dew Point Humidity Pressure Visibility Wind Dir Wind Speed Gust Speed Precip Events Conditions
12:00 AM 59 °F - 44 °F 46% 29.56 in - West 2.3 mph - -  
12:00 AM 58.6 °F - 43.7 °F 58% 29.56 in - West 2.3 mph - N/A   Unknown
1:00 AM 55.8 °F - 45.0 °F 67% 29.56 in - Calm Calm - N/A   Unknown
2:00 AM 52.5 °F - 45.1 °F 76% 29.57 in - East 5.8 mph - N/A   Unknown
3:00 AM 54.5 °F - 45.3 °F 71% 29.56 in - West 13.8 mph 20.7 mph N/A   Unknown
4:00 AM 52.9 °F - 46.8 °F 80% 29.56 in - NW 11.5 mph - N/A   Unknown
5:00 AM 50.5 °F - 47.3 °F 89% 29.58 in - WNW 8.1 mph - 0.03 in   Unknown
6:00 AM 47 °F - 45 °F 90% 29.60 in - West 10.4 mph - -  
6:00 AM 47.5 °F - 45.0 °F 91% 29.60 in - West 10.4 mph - 0.01 in   Unknown
7:00 AM 48.0 °F - 45.5 °F 91% 29.63 in - West 17.3 mph - N/A   Unknown
8:00 AM 46.0 °F 39.0 °F 43.5 °F 91% 29.65 in - WNW 17.3 mph 24.2 mph N/A   Unknown
9:00 AM 47.7 °F - 45.5 °F 92% 29.64 in - West 19.6 mph 25.3 mph N/A   Unknown
10:00 AM 46.4 °F 38.7 °F 44.4 °F 93% 29.67 in - NW 20.7 mph 28.8 mph 0.01 in   Unknown
11:00 AM 45.1 °F 36.4 °F 43.2 °F 93% 29.71 in - NW 24.2 mph 31.1 mph N/A   Unknown
12:00 PM 44 °F - 42 °F 92% 29.75 in - NW 24.2 mph - -  
12:00 PM 44.4 °F 35.5 °F 42.4 °F 93% 29.75 in - NW 24.2 mph 31.1 mph N/A   Unknown
1:00 PM 44.2 °F 34.6 °F 41.5 °F 90% 29.78 in - NW 27.6 mph 35.7 mph N/A   Unknown
2:00 PM 43.7 °F 35.2 °F 41.2 °F 91% 29.81 in - NW 20.7 mph 28.8 mph N/A   Unknown
3:00 PM 43.3 °F 34.0 °F 41.0 °F 91% 29.85 in - NNW 24.2 mph 32.2 mph 0.02 in   Unknown
4:00 PM 41.9 °F 32.6 °F 39.9 °F 93% 29.90 in - NW 21.9 mph 29.9 mph 0.05 in   Unknown
5:00 PM 41.9 °F 32.6 °F 39.7 °F 92% 29.94 in - NNW 21.9 mph 29.9 mph 0.03 in   Unknown
6:00 PM 41 °F - 38 °F 87% 29.98 in - NW 18.4 mph - -  
6:00 PM 40.6 °F 31.7 °F 38.5 °F 92% 29.98 in - NW 18.4 mph 27.6 mph 0.04 in   Unknown
7:00 PM 40.6 °F 32.3 °F 38.7 °F 93% 30.01 in - NNW 16.1 mph - 0.05 in   Unknown
8:00 PM 40.8 °F 34.1 °F 39.0 °F 93% 30.04 in - NW 11.5 mph - 0.04 in   Unknown
9:00 PM 41.4 °F 34.3 °F 39.7 °F 94% 30.07 in - NW 12.7 mph - 0.02 in   Unknown
10:00 PM 41.4 °F 34.3 °F 39.4 °F 93% 30.10 in - NNW 12.7 mph - 0.02 in   Unknown
11:00 PM 41.7 °F 35.2 °F 39.6 °F 92% 30.11 in - NW 11.5 mph - N/A   Unknown